Terminal Aerodrome Forecast
Issued by NWS Memphis, TN

Home | Current Version | Previous Version | Text Only | Print | Product List | Glossary On
Versions: 1 2 3 4 5 6 7 8 9 10 11 12 13 14 15 16 17 18 19 20 21 22 23 24 25 26 27 28
000
FTUS44 KMEG 180254 AAA
TAFMEM
TAF AMD
KMEM 180254Z 1803/1824 05009KT P6SM VCSH OVC100
      TEMPO 1803/1807 6SM -RA BR SCT025 BKN040
     FM180800 04007KT 6SM -RA BR SCT009 OVC025
     FM181400 13004KT P6SM VCSH OVC025
     FM181600 13003KT P6SM OVC015=

USA.gov is the U.S. government's official web portal to all federal, state and local government web resources and services.